Regional Weather Roundup
Issued by NWS

Home | Current Version | Previous Version | Text Only | Print | Product List | Glossary On
Versions: 1 2 3 4 5 6 7 8 9 10 11 12 13 14 15 16 17 18 19 20 21 22 23 24 25 26 27 28 29 30 31 32 33 34 35 36 37 38 39 40 41 42 43 44 45 46 47 48 49 50
000
ASUS45 KTFX 230204
RWRMT
MONTANA HOURLY WEATHER ROUNDUP
NATIONAL WEATHER SERVICE GREAT FALLS MT
804 PM MDT FRI AUG 22 2014

NOTE: "FAIR" INDICATES FEW OR NO CLOUDS BELOW 12000 FEET WITH NO
SIGNIFICANT WEATHER AND/OR OBSTRUCTIONS TO VISIBILITY.

* THESE STATIONS ARE NOT UNDER NWS QUALITY CONTROL. THEY DO NOT
   REPORT WEATHER SUCH AS PRECIPITATION OR FOG.

MTZ001>007-043-230300-
WEST OF THE DIVIDE
CITY           SKY/WX    TMP DP  RH WIND       PRES   REMARKS
KALISPELL      CLOUDY    61  43  52 N15       30.11R
MISSOULA       CLOUDY    61  48  62 N15       30.05R
BUTTE          HVY RAIN  48  46  93 NE3       30.13R VSB 2 1/2
MULLAN PASS    CLOUDY    48  45  89 CALM      30.14R
* ESSEX        N/A       54  40  59 E9G17      N/A
* LINCOLN      N/A       56  47  72 NE10G19    N/A
* LOOKOUT PASS N/A       55  46  72 NW4G9      N/A
* POLSON       N/A       58  49  72 N3         N/A
* RONAN APT    CLOUDY    61  54  78 N/A        N/A
* SEELEY LAKE  N/A       56  53  90 N/A        N/A
* THOMP F APT  CLOUDY    46  44  93 NW1G11     N/A
$$

MTZ008-052>055-230300-
SOUTHWEST MONTANA
CITY           SKY/WX    TMP DP  RH WIND       PRES   REMARKS
BOZEMAN        CLOUDY    55  52  90 NW3       30.08S
DILLON         CLOUDY    54  48  80 CALM      30.07S
W YELLOWSTONE  CLOUDY    50  43  77 N6        30.12R
* THREE FORKS  CLOUDY    55  37  51 N/A        N/A
* BOULDER HILL N/A       50  43  77 N8G15      N/A
* MONIDA PASS  N/A       46  46 100 VRB6       N/A
* RAYNOLDS PAS N/A       48   1  14 NE7        N/A
* WHITEHALL    N/A       53  50  90 E4G15      N/A
* WISE RIVER   N/A       47  46  96 SE3        N/A
$$

MTZ009>010-012-014-046-048-049-054-230300-
EAST SLOPES AND CENTRAL MONTANA
CITY           SKY/WX    TMP DP  RH WIND       PRES   REMARKS
CUT BANK       CLOUDY    48  46  93 N18G25    30.23R
GREAT FALLS    CLOUDY    55  52  90 N13       30.14R
HELENA         CLOUDY    61  48  62 NW14      30.09R
MALMSTROM AFB  CLOUDY    57  54  90 N14       30.15R
* CONRAD       MOCLDY    52  50  93 NW11G17    N/A
* DEARBORN     N/A       55  52  90 VRB9G14    N/A
* EAST GLACIER N/A       43  42  96 NE15G22    N/A
* MONARCH      N/A       49  46  89 VRB9       N/A
* PENDROY      N/A       47  47 100 N16G26     N/A
* SAINT MARY   N/A       45  44  96 N6G12      N/A
* SWEET GRASS  N/A       47  47 100 NE22G30    N/A
$$

MTZ011-013-016-021-035-040-045-047-050-051-230300-
NORTH CENTRAL MONTANA
CITY           SKY/WX    TMP DP  RH WIND       PRES   REMARKS
HAVRE          LGT RAIN  57  55  93 E15       30.13R
LEWISTOWN      CLOUDY    55  54  96 N12       30.10S
* CHESTER      N/A       53  51  93 NE10G17    N/A
* DENTON       N/A       56  54  93 N11        N/A
* GEYSER       N/A       56  50  80 NE10G15    N/A
* JUDITH GAP   N/A       53  53 100 N14G20     N/A
* LOMA         N/A       60  55  84 VRB12      N/A
$$

MTZ017>020-022>027-061-062-230300-
NORTHEAST MONTANA
CITY           SKY/WX    TMP DP  RH WIND       PRES   REMARKS
GLASGOW        CLOUDY    63  54  73 NE16G25   30.09S
GLENDIVE       CLOUDY    64  59  84 NE18      30.09R
JORDAN         MOCLDY    64  55  73 NE15      30.06R
SIDNEY         CLOUDY    64  57  78 NE12      30.11R
WOLF POINT     CLOUDY    66  54  65 E14       30.10R
* BEAVER HILL  N/A       62  59  90 NE16G21    N/A
* CIRCLE       N/A       64  58  81 E13        N/A
* LINDSAY DVD  N/A       61  57  87 NE17G22    N/A
* SACO         N/A       64  52  65 NE14G19    N/A
$$

MTZ028>042-056>058-230300-
SOUTHCENTRAL AND SOUTHEAST MONTANA
CITY           SKY/WX    TMP DP  RH WIND       PRES   REMARKS
BAKER          CLOUDY    64  61  90 E16       30.04S
BILLINGS       CLOUDY    61  57  87 N8        30.02F
LIVINGSTON     LGT RAIN  57  50  78 SE10      30.06S
MILES CITY     LGT RAIN  64  61  90 NE14      30.01S
* LAUREL APT   CLOUDY    61  55  81 NW5        N/A
* ROUNDUP APT  CLOUDY    63  54  73 N/A        N/A
* ALZADA       N/A       66  60  81 NE11G16    N/A
* HYSHAM       N/A       65  49  56 E6         N/A
* LAME DEER    N/A       58  57  96 NE14       N/A
* REED POINT   N/A       59  57  93 S1         N/A
* ROSCOE HILL  N/A       52  48  86 VRB6G11    N/A
$$

REGIONAL REPORTS...DAKOTAS
CITY           SKY/WX    TMP DP  RH WIND       PRES   REMARKS
WILLISTON      CLOUDY    64  54  70 E14       30.12F
DICKINSON      CLOUDY    64  61  90 NE13      30.06F
BEACH          N/A       63  63 100 E12       30.09R
CROSBY         CLOUDY    63  57  81 NE9       30.16R
TIOGA          CLOUDY    61  61 100 E8        30.17R
WATFORD CITY   CLOUDY    63  57  81 E14       30.09F
BISMARCK       CLOUDY    68  64  87 NE10      30.06R
GRAND FORKS    CLOUDY    68  63  84 N9        30.06R
FARGO          CLOUDY    70  64  81 N7        30.04R
BUFFALO SD     CLOUDY    68  61  78 E10       29.99R
RAPID CITY     CLOUDY    72  63  73 W5        30.01R
$$

REGIONAL REPORTS...WYOMING/IDAHO/WASHINGTON
CITY           SKY/WX    TMP DP  RH WIND       PRES   REMARKS
GILLETTE       RAIN      61  61 100 E13       30.03R VSB 3
SHERIDAN       CLOUDY    64  54  70 N12       30.01S
CODY           CLOUDY    57  52  83 N9        30.04S
YELLOWSTONE LA CLOUDY    46  41  83 VRB5      30.19R
SALMON         CLOUDY    57  45  64 SW13      30.01F
MULLAN PASS    CLOUDY    48  45  89 CALM      30.14S
SAND POINT     MOCLDY    64  48  56 N20       30.06S
SPOKANE        MOCLDY    70  48  46 N14G24    30.01S

$$




USA.gov is the U.S. government's official web portal to all federal, state and local government web resources and services.